EW1033 Weather Reports


Display with metric or nautical units.
time (UTC)temp
F
wind
direction
speed
MPH
gust
MPH
rain 1hr
in
rain 24hr
in
rain mn
in
humidity
%
barometer
mb
20260902053018 78 0.0 0.0 0.00 0.01 0.01 68 1010.7
20260902051522 79 0.0 0.0 0.00 0.01 0.01 66 1010.9
20260902050016 80 0.0 0.0 0.00 0.01 0.01 64 1010.8
20260902044516 81 0.0 0.0 0.00 0.01 0.01 62 1010.9
20260902043015 81 0.0 0.0 0.00 0.01 0.01 60 1010.7
20260902041515 82 0.0 0.0 0.00 0.01 0.01 58 1010.7
20260902040014 81 0.0 0.0 0.00 0.01 0.01 59 1010.5
20260902034513 82 0.0 0.0 0.00 0.01 0.01 57 1010.3
20260902033012 83 0.0 0.0 0.00 0.01 0.01 55 1010.0
20260902031512 84 0.0 0.0 0.00 0.01 0.01 55 1009.6
20260902030011 85 0.0 0.0 0.00 0.01 0.01 50 1009.3
20260902024511 86 0.0 0.0 0.00 0.01 0.01 48 1009.0
20260902023025 86 0.0 0.0 0.00 0.01 0.01 46 1008.8
20260902021524 87 0.0 0.0 0.00 0.01 0.01 45 1008.7
20260902020009 87 0.0 0.0 0.00 0.01 0.01 45 1008.4
20260902014508 88 0.0 0.0 0.00 0.01 0.01 45 1008.4
20260902013007 89 0.0 0.0 0.00 0.01 0.01 45 1008.3
20260902011512 90 0.0 0.0 0.00 0.01 0.01 43 1008.3
20260902010006 91 0.0 0.0 0.00 0.01 0.01 42 1008.2
20260902004505 92 0.0 0.0 0.00 0.01 0.01 40 1008.3
20260902003004 92 0.0 0.0 0.00 0.01 0.01 39 1008.4
20260902001502 93 0.0 0.0 0.00 0.01 0.01 38 1008.6
20260902000001 93 0.0 0.0 0.00 0.01 0.01 38 1008.6
20260901234558 93 0.0 0.0 0.00 0.01 0.01 37 1008.8
20260901233057 94 0.0 0.0 0.00 0.01 0.01 37 1008.9
20260901231557 94 0.0 0.0 0.00 0.01 0.01 37 1009.0
20260901230110 94 0.0 0.0 0.00 0.01 0.01 35 1009.2
20260901224552 94 0.0 0.0 0.00 0.01 0.01 35 1009.3
20260901223059 94 0.0 0.0 0.00 0.01 0.01 34 1009.5
20260901221550 94 0.0 0.0 0.00 0.01 0.01 37 1009.7
20260901220111 95 0.0 0.0 0.00 0.01 0.01 35 1009.9
20260901214544 94 0.0 0.0 0.00 0.01 0.01 35 1010.2
20260901213105 94 0.0 0.0 0.00 0.01 0.01 36 1010.4
20260901211538 94 0.0 0.0 0.00 0.01 0.01 37 1010.7
20260901210042 93 0.0 0.0 0.00 0.10 0.01 38 1010.9
20260901204538 92 0.0 0.0 0.00 0.10 0.01 37 1011.1
20260901203048 93 0.0 0.0 0.00 0.10 0.01 38 1011.4
20260901201529 92 0.0 0.0 0.00 0.10 0.01 38 1011.7
20260901200033 91 0.0 0.0 0.00 0.25 0.01 40 1011.9
20260901194536 92 0.0 0.0 0.00 0.25 0.01 38 1012.1
20260901193024 90 0.0 0.0 0.00 0.25 0.01 41 1012.4
20260901191524 91 0.0 0.0 0.00 0.25 0.01 40 1012.5
20260901190023 90 0.0 0.0 0.00 0.31 0.01 42 1012.8
20260901184529 89 0.0 0.0 0.00 0.31 0.01 42 1012.8
20260901183027 89 0.0 0.0 0.00 0.31 0.01 44 1013.0
20260901181518 89 0.0 0.0 0.00 0.31 0.01 43 1013.2
20260901180013 88 0.0 0.0 0.00 0.31 0.01 43 1013.2
20260901174511 87 0.0 0.0 0.00 0.31 0.01 46 1013.3
20260901173007 86 0.0 0.0 0.00 0.31 0.01 47 1013.4
20260901171504 85 0.0 0.0 0.00 0.31 0.01 47 1013.5
20260901170002 85 0.0 0.0 0.00 0.31 0.01 51 1013.5
20260901164611 83 0.0 0.0 0.00 0.31 0.01 55 1013.4
20260901163055 82 0.0 0.0 0.00 0.31 0.01 58 1013.4
20260901161553 81 0.0 0.0 0.00 0.31 0.01 61 1013.4
20260901160148 80 0.0 0.0 0.00 0.31 0.01 65 1013.4
20260901154545 79 0.0 0.0 0.00 0.31 0.01 66 1013.6
20260901153041 78 0.0 0.0 0.00 0.31 0.01 69 1013.5
20260901151539 77 0.0 0.0 0.00 0.31 0.01 72 1013.6
20260901150035 75 0.0 0.0 0.00 0.31 0.01 73 1013.6
20260901144531 74 0.0 0.0 0.00 0.31 0.01 76 1013.6
20260901143032 74 0.0 0.0 0.00 0.31 0.01 80 1013.6
20260901141524 72 0.0 0.0 0.00 0.31 0.01 81 1013.5
20260901140031 71 0.0 0.0 0.00 0.32 0.01 87 1013.4
20260901134522 69 0.0 0.0 0.00 0.32 0.01 90 1013.3
20260901133015 68 0.0 0.0 0.01 0.32 0.01 91 1013.2
20260901131514 67 0.0 0.0 0.01 0.32 0.01 91 1012.8
20260901130025 67 0.0 0.0 0.01 0.32 0.01 91 1012.5
20260901124608 67 0.0 0.0 0.01 0.32 0.01 91 1012.4
20260901123009 67 0.0 0.0 0.00 0.31 0.00 91 1012.2
20260901121504 67 0.0 0.0 0.00 0.31 0.00 91 1012.1
20260901120004 67 0.0 0.0 0.00 0.31 0.00 91 1012.0
20260901114501 68 0.0 0.0 0.00 0.31 0.00 91 1012.1
20260901113100 68 0.0 0.0 0.00 0.31 0.00 91 1012.2
20260901111559 68 0.0 0.0 0.00 0.31 0.00 91 1012.0
20260901110059 68 0.0 0.0 0.00 0.31 0.00 91 1012.0
20260901104555 68 0.0 0.0 0.00 0.31 0.00 90 1011.9
20260901103052 68 0.0 0.0 0.00 0.31 0.00 90 1011.7
20260901101550 68 0.0 0.0 0.00 0.31 0.00 90 1011.6
20260901100051 69 0.0 0.0 0.00 0.31 0.00 90 1011.6
20260901094550 69 0.0 0.0 0.00 0.31 0.00 89 1011.6
20260901093046 69 0.0 0.0 0.00 0.31 0.00 89 1011.6
20260901091546 69 0.0 0.0 0.00 0.31 0.00 88 1011.4
20260901090045 70 0.0 0.0 0.00 0.31 0.00 88 1011.5
20260901084545 70 0.0 0.0 0.00 0.31 0.00 88 1011.5
20260901083043 69 0.0 0.0 0.00 0.31 0.00 88 1011.5
20260901081542 69 0.0 0.0 0.00 0.31 0.00 88 1011.6
20260901080040 70 0.0 0.0 0.00 0.31 0.00 88 1011.5
20260901074537 70 0.0 0.0 0.00 0.31 0.00 87 1011.5
20260901073036 71 0.0 0.0 0.00 0.31 0.00 87 1011.6
20260901071534 71 0.0 0.0 0.00 0.31 0.00 87 1011.6
20260901070032 71 0.0 0.0 0.00 0.31 0.31 88 1011.5
20260901064533 71 0.0 0.0 0.00 0.31 0.31 88 1011.4
20260901063033 71 0.0 0.0 0.00 0.31 0.31 88 1011.7
20260901061531 71 0.0 0.0 0.00 0.31 0.31 87 1011.6
20260901060030 72 0.0 0.0 0.00 0.31 0.31 85 1011.5
20260901054529 72 0.0 0.0 0.00 0.31 0.31 85 1011.4